User: anonymous   Login
Location: *
(10.4782°N, 67.2163°W)
Time: 16:56:33
(UTC+00:00)
Language:

ASTEX 1 - Orbit

View from above orbital plane
View from above orbital plane
View from above satellite
View from above satellite

Ground track
Ground track

The orbit data is extracted from the following two-line orbital elements,

1 05560U 71089A   24206.78487874  .00001409  00000-0  36797-3 0  9997
2 05560  92.7226 319.9966 0013773 288.4271  71.5437 14.49473207776370
Epoch (UTC): 24 July 2024 18:50:13
Eccentricity: 0.0013773
inclination: 92.7226°
perigee height: 717 km
apogee height: 737 km
right ascension of ascending node: 319.9966°
argument of perigee: 288.4271°
revolutions per day: 14.49473207
mean anomaly at epoch: 71.5437°
orbit number at epoch: 77637

The dashed part of the orbit path shows where the satellite is in the earth's shadow,  

DLR